Temp
19 22 21 19 18 18 18 18 18 20 17 16 19 19 19 19 17 16 16 16 15 14 13 10 8 7 6 5 6 6 5 6 5 5 5 5 5 4 3 3 5 5 5 5
21 21 18 17 16 17 17 18 21 19 16 16 19 18 19 17 17 17 16 15 15 15 12 10 8 7 6 6 5 5 4 4 4 4 4 4 4 3 3 3 4 4 4 4
21 19 17 17 17 18 20 19 19 17 17 16 16 21 19 16 15 15 14 15 15 14 13 11 9 8 7 6 5 4 4 4 5 5 4 4 3 3 3 2 2 3 2 3
19 17 17 17 18 17 19 16 15 16 17 20 16 23 21 18 18 17 17 15 15 13 13 12 10 8 7 6 4 4 4 4 4 5 4 4 5 5 2 1 1 1 2 2
20 17 17 18 18 17 19 15 15 15 16 15 17 18 25 17 19 20 19 18 16 14 13 12 10 9 7 5 4 3 3 4 4 4 3 3 3 2 1 1 1 1 1 1
18 15 16 18 16 15 16 16 15 14 16 17 17 17 23 22 20 19 20 19 17 14 13 12 10 8 6 4 3 3 3 3 3 3 3 2 2 2 2 1 2 1 1 0
18 17 16 15 17 16 17 18 20 20 19 21 15 16 21 21 18 18 18 17 16 15 13 12 10 8 7 5 4 3 2 2 1 2 2 1 1 0 1 0 -0 0 -0 -0
19 20 17 16 17 17 16 17 19 18 20 20 14 17 21 17 15 15 15 15 14 13 13 12 11 9 8 6 4 3 3 2 1 1 0 0 0 -0 -1 -1 -1 -1 -1 -1
19 20 15 15 15 15 16 17 15 17 15 16 19 18 19 16 16 15 15 14 14 13 12 12 10 9 8 6 5 4 3 2 1 1 0 -0 -1 -1 -1 -1 -1 -1 -1 -1
18 19 15 14 14 13 15 15 16 15 17 19 21 21 19 20 19 16 15 15 14 12 10 10 9 8 7 6 5 3 2 2 1 0 -0 -1 -2 -2 -2 -2 -2 -2 -2 -2
16 17 17 14 15 17 14 15 14 14 15 17 18 20 20 19 18 18 17 16 14 12 11 9 7 6 4 4 4 3 2 1 1 -0 -1 -1 -2 -2 -3 -2 -3 -3 -3 -3
16 16 17 18 13 13 15 17 16 16 16 13 15 17 20 17 16 15 16 14 13 11 9 7 6 5 4 3 2 2 1 1 1 -0 -1 -2 -2 -3 -3 -3 -3 -3 -3 -3
14 16 17 18 14 12 14 14 15 14 12 13 13 17 16 15 15 16 15 14 11 9 7 6 6 5 4 3 2 1 1 0 -1 -1 -2 -2 -2 -2 -3 -3 -4 -4 -4 -4
14 15 16 16 17 16 11 13 13 13 11 14 15 16 18 18 17 18 14 13 11 9 7 6 5 4 3 2 1 1 0 -0 -1 -2 -2 -2 -2 -3 -3 -4 -4 -5 -5 -5
13 11 13 14 15 15 15 15 15 13 12 12 15 16 16 17 17 16 15 13 10 7 5 4 3 1 1 1 0 -0 -1 -1 -2 -2 -2 -2 -4 -4 -5 -5 -5 -5 -5 -5
8 10 9 10 13 13 13 14 14 14 14 14 15 15 17 16 12 12 11 10 8 6 4 1 -1 -2 0 -0 -1 -1 -2 -2 -2 -2 -3 -4 -4 -5 -5 -6 -6 -6 -6 -6
8 9 9 12 14 13 14 16 15 14 13 14 14 15 12 11 11 8 7 7 6 2 -0 -1 -2 -3 -2 -2 -2 -2 -2 -3 -3 -4 -4 -5 -5 -5 -5 -6 -6 -6 -6 -6
8 8 9 11 12 13 17 14 14 15 11 9 9 9 8 7 5 4 2 3 0 -0 -1 -2 -3 -3 -4 -4 -4 -4 -4 -4 -4 -4 -5 -5 -6 -6 -6 -6 -6 -6 -6 -6
13 11 10 11 12 13 15 11 11 12 8 5 5 5 6 6 5 1 -1 -1 -2 -2 -3 -4 -4 -5 -5 -5 -6 -5 -5 -5 -5 -5 -5 -6 -6 -6 -6 -6 -6 -6 -7 -6
9 11 10 11 12 13 10 8 7 8 10 3 3 2 2 4 7 3 -1 -2 -3 -4 -4 -4 -5 -6 -6 -7 -7 -6 -5 -5 -5 -6 -6 -7 -7 -7 -7 -7 -7 -7 -7 -7
10 9 10 10 11 12 2 2 3 10 5 0 -0 -1 -0 1 0 -0 -1 -3 -4 -5 -5 -6 -6 -6 -7 -7 -7 -6 -6 -6 -7 -7 -7 -7 -7 -7 -7 -7 -7 -7 -7 -8
12 11 12 10 11 12 -0 3 5 -1 -1 -2 -2 -3 -3 -2 -2 -3 -3 -4 -5 -5 -6 -7 -7 -7 -7 -8 -8 -7 -7 -7 -7 -7 -7 -7 -8 -8 -8 -8 -8 -8 -8 -8
12 10 10 6 4 -1 -2 -2 -3 -3 -3 -3 -4 -4 -4 -4 -4 -4 -4 -5 -6 -6 -7 -7 -7 -7 -7 -7 -8 -7 -7 -8 -8 -8 -8 -8 -9 -9 -9 -9 -8 -8 -8 -9
4 0 4 2 -2 -3 -4 -4 -4 -5 -5 -5 -5 -5 -5 -5 -5 -5 -5 -6 -6 -6 -6 -7 -7 -7 -7 -7 -8 -8 -8 -9 -9 -9 -9 -9 -9 -10 -9 -10 -9 -9 -9 -9
-3 -1 -1 -0 -3 -3 -4 -5 -6 -5 -6 -6 -6 -6 -7 -7 -6 -7 -7 -7 -7 -7 -7 -8 -7 -8 -8 -8 -8 -9 -9 -9 -10 -10 -10 -10 -10 -10 -10 -10 -10 -10 -10 -10
-5 -6 -3 -2 -5 -6 -4 -5 -6 -6 -6 -6 -6 -7 -7 -7 -8 -8 -8 -8 -8 -8 -8 -8 -8 -9 -9 -9 -9 -10 -10 -10 -10 -11 -10 -10 -10 -10 -10 -11 -11 -11 -10 -10
Height
823 819 824 830 832 832 833 832 827 815 821 822 803 796 790 790 796 797 797 798 801 805 814 820 824 825 826 826 824 822 822 821 819 817 816 816 816 814 812 811 808 805 804 802
821 825 831 835 836 835 832 827 814 813 823 823 801 793 783 788 790 791 793 796 797 802 810 815 819 822 823 823 822 823 822 820 819 818 817 816 815 814 812 811 810 808 806 804
823 830 834 835 834 831 821 824 821 829 820 820 816 778 781 789 792 793 794 793 795 798 804 811 816 817 818 821 821 821 820 819 817 816 816 816 815 814 814 813 811 810 808 806
826 832 833 833 832 833 825 829 833 830 824 806 816 782 773 782 782 785 784 789 792 797 801 805 810 813 816 817 817 818 819 819 819 818 817 816 815 815 815 814 813 811 809 808
824 831 832 831 827 832 823 833 831 831 824 826 810 807 758 786 777 773 774 780 787 793 798 801 805 810 814 816 817 819 819 818 816 816 817 818 816 816 815 814 814 813 811 810
828 834 832 827 831 833 830 828 830 830 824 817 810 810 769 769 772 773 771 776 783 790 794 797 802 806 809 811 814 814 815 814 815 814 814 814 814 814 816 815 815 814 813 812
827 829 831 832 828 830 827 818 809 809 808 794 820 817 772 767 773 776 775 777 783 787 792 797 800 802 806 807 809 811 812 815 814 813 814 814 814 815 814 815 816 816 816 813
824 821 827 829 826 825 829 826 818 824 806 794 821 803 770 777 780 781 783 782 785 787 789 793 795 797 801 803 806 808 810 813 815 815 813 815 815 816 815 816 816 816 816 816
822 818 829 831 830 831 831 826 833 823 829 821 788 790 774 775 776 779 780 783 783 786 788 790 793 796 798 800 803 806 808 811 813 814 814 813 815 815 816 815 817 815 814 816
822 823 827 834 833 836 831 831 829 831 820 800 770 767 772 764 767 772 775 777 780 785 788 790 792 795 797 798 800 803 805 807 810 811 812 813 814 815 816 815 817 816 815 815
826 827 824 833 827 817 832 828 832 833 825 811 794 765 760 765 766 767 767 772 777 784 788 793 794 794 796 796 798 800 802 805 807 809 812 813 814 814 815 815 815 815 814 813
825 824 820 808 824 824 820 812 815 813 809 826 810 775 753 765 769 773 769 773 777 784 790 793 795 792 792 795 796 797 800 802 805 808 810 812 813 813 813 814 813 813 813 812
828 823 818 802 823 829 822 816 813 816 827 814 810 770 761 766 768 768 768 771 778 783 787 790 792 790 790 794 794 796 799 802 803 805 808 810 811 812 812 812 811 811 812 811
827 822 814 812 800 805 828 818 814 812 820 794 781 767 753 756 758 757 766 767 771 777 784 787 792 791 793 796 795 796 797 800 802 803 806 808 809 810 810 810 810 810 810 809
830 832 821 811 803 801 797 798 795 804 796 802 767 765 761 754 752 754 758 762 772 783 788 793 794 797 797 796 797 797 797 798 800 802 805 806 807 807 807 808 808 808 807 807
836 829 831 817 805 802 793 791 783 779 779 780 770 761 755 757 766 765 766 771 778 785 792 798 801 801 802 800 799 799 799 800 801 803 804 804 804 805 806 806 806 806 805 805
835 831 825 798 792 798 785 760 766 771 772 770 770 760 772 768 769 777 780 781 786 794 799 801 803 804 803 804 804 803 802 801 801 802 804 805 803 803 804 803 803 803 803 802
823 824 821 801 798 788 754 765 763 762 780 787 787 788 790 792 794 797 801 797 800 801 802 803 804 806 805 804 803 804 806 802 802 802 802 805 804 803 802 802 802 801 800 799
793 805 806 797 787 773 756 778 777 771 793 807 804 800 796 794 795 806 810 811 811 809 806 805 806 807 806 806 806 806 805 804 802 803 802 803 802 801 801 800 799 798 797 796
802 795 802 793 784 769 785 792 793 789 773 817 817 816 811 794 783 803 812 813 813 814 813 809 807 808 809 807 806 803 802 803 803 802 801 801 800 799 798 797 796 795 795 793
797 799 794 787 776 768 819 814 804 774 804 827 827 829 824 812 819 818 816 815 816 815 815 814 809 810 810 807 805 802 801 801 803 801 801 798 796 796 795 794 792 792 791 790
781 780 775 783 774 762 828 813 802 838 834 836 835 834 830 825 825 823 818 817 818 816 815 817 811 810 809 806 804 801 800 801 800 799 797 795 794 793 791 790 789 788 788 787
774 784 778 802 815 844 846 843 846 847 842 841 839 837 832 829 827 824 820 819 819 817 816 814 811 808 806 805 802 800 799 799 797 795 793 791 790 788 787 786 785 784 783 783
806 821 807 818 846 849 852 852 849 852 849 845 843 839 835 833 829 825 822 820 818 817 814 812 809 806 804 802 800 798 796 795 793 790 788 786 786 784 782 781 780 779 779 778
845 833 834 833 849 850 847 853 855 853 849 844 844 842 839 835 831 828 824 821 819 816 813 811 807 805 802 800 797 795 793 791 788 785 783 781 780 779 777 775 774 774 773 773
858 862 850 844 859 861 853 856 855 852 849 846 844 841 838 837 833 829 825 822 818 814 812 809 806 803 800 797 793 791 789 786 783 780 778 776 775 773 772 770 768 767 767 767
Wind_Speed
3 2 4 3 3 1 2 6 9 10 3 8 11 21 18 12 14 15 14 13 13 13 10 10 10 7 4 2 2 1 3 5 4 3 2 2 6 8 10 11 13 14 14 14
2 2 1 1 2 2 4 8 6 7 2 8 14 23 18 9 11 14 13 12 13 11 11 12 12 9 8 7 4 2 2 4 4 3 2 2 2 4 7 9 12 13 13 14
1 3 2 2 2 5 5 5 6 7 13 5 13 7 2 1 3 5 7 7 9 12 11 11 14 13 11 8 5 3 1 1 3 3 1 2 1 2 4 7 9 13 13 13
1 3 2 2 3 2 5 1 4 11 9 5 4 5 1 1 6 8 9 9 9 10 9 10 14 14 13 10 8 5 2 1 2 2 2 2 1 1 4 5 7 8 11 12
1 4 3 4 1 2 4 3 8 5 5 5 4 4 1 1 6 12 12 10 9 10 11 12 14 13 12 11 9 6 4 2 1 1 2 2 4 4 3 4 4 6 8 10
1 0 2 1 1 4 7 4 2 2 2 3 3 2 10 3 2 3 8 9 9 10 10 10 11 12 12 11 10 9 8 6 5 4 4 4 5 4 2 3 3 4 5 7
2 3 2 2 3 3 3 6 4 3 2 4 3 3 13 7 5 4 5 6 6 9 10 10 11 14 14 14 14 11 10 8 7 6 5 5 4 4 4 3 3 4 5 6
2 3 5 4 1 2 2 3 3 6 6 11 3 7 3 2 4 2 1 3 3 6 8 10 12 14 15 16 15 14 12 10 8 6 6 4 4 3 3 3 3 3 3 5
3 4 3 1 1 1 4 3 2 4 2 5 3 5 12 2 9 6 8 7 7 6 6 7 8 11 13 13 15 15 13 11 10 8 7 6 5 5 4 4 1 2 3 5
1 5 2 3 2 3 3 5 2 2 4 10 12 19 9 6 4 7 11 12 9 6 5 4 3 4 7 10 12 13 13 12 11 10 8 7 6 4 3 2 1 2 3 5
4 3 2 1 8 8 5 3 3 3 3 4 9 8 2 7 6 8 7 10 10 8 5 2 2 2 1 4 10 12 13 12 12 10 9 7 6 5 2 1 1 2 3 4
4 2 6 8 3 1 2 5 8 5 5 5 6 13 9 5 5 5 6 7 9 7 4 2 1 3 3 1 7 10 11 12 11 10 9 8 7 6 4 2 2 3 5 6
6 4 6 4 3 1 5 5 8 5 1 11 7 10 4 2 6 7 9 10 10 9 8 5 3 3 5 2 4 8 10 10 11 11 10 9 7 6 3 3 3 4 5 7
5 3 13 12 15 7 6 10 12 10 4 12 17 26 26 23 16 17 11 12 14 12 8 5 2 5 5 3 1 6 9 10 11 11 10 9 7 5 3 3 4 5 6 7
2 7 11 20 22 21 25 22 22 17 24 11 26 24 22 23 22 16 13 11 10 7 4 4 6 8 8 5 0 4 7 9 10 10 9 7 6 4 4 5 6 7 7 8
5 4 4 10 20 21 25 21 23 24 23 22 28 28 22 21 9 9 9 4 7 5 6 7 7 8 8 6 1 3 6 7 8 7 7 6 4 4 5 6 6 7 8 8
8 5 4 8 6 8 16 16 17 6 6 8 9 13 17 18 13 7 5 3 5 6 6 5 4 5 7 7 5 1 3 5 5 5 4 5 5 6 7 7 7 8 8 8
8 5 3 5 5 8 2 2 3 9 8 11 11 14 12 10 5 10 13 7 6 5 4 4 5 6 6 5 3 1 2 3 3 4 5 6 6 7 7 8 9 9 9 8
16 7 3 3 6 7 14 5 5 5 5 10 9 11 8 8 4 7 10 11 9 7 7 6 6 5 4 4 3 3 3 4 4 6 7 7 7 7 8 10 9 9 9 9
2 11 6 4 5 5 4 8 13 7 4 15 14 14 15 10 4 5 9 8 7 8 8 5 4 4 4 5 5 4 5 6 7 6 6 7 8 9 10 10 10 11 11 12
3 2 8 9 5 4 7 14 10 5 5 12 12 12 12 8 6 9 7 7 5 5 6 5 3 3 4 5 5 5 5 6 7 8 9 9 9 10 11 12 12 12 12 12
5 5 5 4 5 8 19 2 4 6 5 8 9 10 9 9 8 9 8 7 8 7 6 6 5 5 5 5 6 7 8 8 9 10 10 11 11 11 11 12 13 12 13 13
5 4 2 3 4 8 11 12 8 8 6 9 9 9 10 9 9 9 8 7 7 7 7 7 7 8 8 7 8 10 11 10 11 12 13 13 13 13 13 13 13 13 13 13
4 11 3 5 6 7 9 7 10 8 6 7 8 8 8 9 9 9 8 9 10 11 11 10 12 12 13 11 10 11 12 13 14 15 15 15 15 15 13 13 13 13 14 14
4 8 8 5 7 4 10 9 8 7 8 8 9 8 9 10 10 10 9 12 14 14 14 14 14 15 15 15 15 15 15 14 16 16 16 15 15 15 15 15 15 15 15 15
6 5 3 2 5 5 3 8 11 10 10 10 9 12 13 12 10 14 13 15 15 17 17 17 17 17 18 18 18 17 16 15 16 17 16 15 15 15 15 15 15 16 19 20
Wind_Direction
30 58 39 39 47 56 285 289 289 288 308 297 273 286 283 264 232 237 233 229 220 217 202 186 183 184 182 192 237 295 3 16 35 83 103 63 44 42 38 36 36 38 33 31
202 81 102 144 166 254 261 295 315 292 274 309 306 294 303 280 241 238 236 226 218 203 186 181 184 186 194 206 217 268 336 16 25 39 72 86 97 49 45 38 32 33 30 32
346 92 132 230 251 295 292 278 332 304 316 250 297 267 310 107 233 216 224 227 216 204 192 184 189 196 197 203 204 223 254 10 34 48 94 162 155 64 43 28 30 28 29 30
271 136 204 219 269 267 303 199 292 305 321 310 355 302 263 227 251 231 215 210 205 192 191 186 191 198 199 199 201 204 220 314 19 52 65 101 121 95 46 38 29 32 36 33
109 190 201 234 244 196 313 303 303 295 282 304 178 262 282 284 251 236 221 206 198 188 187 190 194 196 198 195 198 196 199 216 176 99 94 76 87 94 86 57 39 35 33 35
286 72 232 306 185 222 307 276 256 210 244 249 98 298 292 249 258 294 230 206 194 186 188 189 183 182 192 193 193 194 200 198 197 174 157 139 134 123 107 67 50 40 34 31
204 200 179 223 255 199 298 303 301 277 240 303 129 241 267 272 255 268 268 190 185 191 190 184 184 190 196 197 199 199 196 206 194 181 174 158 144 126 110 102 59 36 23 31
287 263 187 164 278 320 24 323 289 296 303 306 153 235 262 324 319 248 164 173 180 185 191 197 202 200 204 205 202 201 201 200 198 182 165 171 165 144 125 96 75 60 33 11
224 246 123 121 136 261 142 220 29 280 232 281 222 249 280 282 257 222 221 215 207 183 186 199 207 217 217 210 207 206 200 197 197 191 183 177 177 164 154 130 107 51 11 335
192 278 159 118 144 81 259 133 207 205 281 294 286 296 262 265 258 218 224 221 201 180 175 169 172 217 230 221 212 204 202 201 197 190 189 185 172 165 161 126 360 346 356 342
176 238 143 186 204 190 160 195 197 288 238 271 294 298 148 308 311 302 276 223 200 192 186 159 94 57 345 206 203 200 198 197 196 190 187 181 172 169 176 187 300 313 323 329
188 236 251 249 103 31 268 221 195 226 231 240 286 271 288 279 276 271 277 216 198 185 163 153 146 87 83 185 195 197 200 198 195 189 183 180 181 184 193 231 272 294 304 299
180 212 292 231 143 53 241 211 216 269 22 235 255 264 163 212 274 257 244 215 195 187 181 179 173 96 67 255 198 196 198 194 184 177 177 184 191 196 216 259 274 289 289 287
174 231 243 258 273 261 237 226 225 209 220 258 242 273 286 288 281 287 246 221 203 192 183 161 102 45 26 340 225 194 188 185 179 178 184 189 194 208 240 270 276 273 281 276
158 253 252 255 267 275 272 274 265 227 241 247 272 280 281 287 303 305 304 238 199 180 145 64 40 21 15 10 293 188 183 179 179 184 191 197 200 223 254 265 268 270 269 268
175 238 220 262 264 261 272 265 260 255 258 256 261 272 277 298 344 334 323 233 190 147 89 49 34 14 1 355 333 181 177 176 178 193 202 195 212 237 253 257 263 266 265 265
174 209 202 258 279 302 280 264 240 217 226 238 268 304 347 332 330 1 16 73 101 79 63 55 41 24 15 8 356 299 192 176 177 189 215 231 232 246 252 256 258 261 264 266
183 192 206 272 288 255 279 9 259 238 47 18 346 347 344 341 20 36 21 30 64 66 62 53 34 24 18 9 4 315 247 197 208 231 232 247 248 256 260 264 266 267 266 267
222 204 236 240 222 303 297 32 9 14 83 19 343 356 351 341 291 63 32 27 17 21 36 38 30 17 12 7 336 296 283 276 259 253 248 247 253 262 267 269 272 272 273 271
192 232 211 187 237 249 58 9 351 327 193 15 9 2 357 355 314 32 15 15 17 12 7 14 13 348 328 330 323 300 298 293 279 265 260 258 266 269 271 274 275 278 272 272
165 182 224 238 262 226 355 317 311 245 1 10 13 5 357 21 7 345 7 27 21 12 351 346 7 336 314 323 327 315 307 287 282 274 271 272 271 273 274 277 277 273 268 270
236 195 225 213 234 247 353 67 8 348 5 6 3 4 358 3 357 355 13 11 2 354 346 327 326 310 300 310 319 307 293 284 276 273 275 276 275 275 277 276 274 267 266 264
245 312 331 39 53 59 40 58 44 6 4 4 358 359 1 355 357 356 357 357 349 335 323 316 319 315 312 305 301 294 290 287 286 283 279 279 279 277 274 271 269 266 260 259
63 15 53 166 48 87 60 45 28 15 10 7 2 356 358 343 347 349 346 345 340 334 326 325 321 316 309 305 297 287 287 287 284 282 281 281 279 276 274 268 262 259 258 258
352 340 352 85 35 156 64 46 7 356 1 3 359 350 351 347 345 344 337 337 332 326 326 324 316 308 303 304 299 295 290 287 283 282 281 277 274 273 272 264 259 256 256 254
2 7 18 24 19 293 324 18 10 360 355 349 349 346 346 339 333 333 328 327 326 322 320 315 311 307 305 304 300 299 295 289 284 283 280 275 274 274 271 267 269 261 257 261